Tracking 18840 objects as of 19-November-2017
HD Live streaming from Space Station
objects crossing your sky now

SL-8 R/B

Track SL-8 R/B now!
10-day predictions


NORAD ID: 25569
Int'l Code: 1998-072C
Perigee: 975.9 km
Apogee: 1,008.9 km
Inclination: 82.9 °
Period: 104.8 minutes
Semi major axis: 7363 km
RCS: 8.6244 m2 (large)
Launch date: December 10, 1998
Source: Commonwealth of Independent States (former USSR) (CIS)
Launch site: PLESETSK MISSILE AND SPACE COMPLEX (PKMTR)

Note: This is a ROCKET BODY
aabbcc
Your satellite tracking list
Your tracking list is empty




NASA's NSSDC Master Catalog

Two Line Element Set (TLE):
1 25569U 98072C   17322.93887038 +.00000065 +00000-0 +53190-4 0  9997
2 25569 082.9460 215.1684 0022357 075.0529 348.7051 13.73996757949548
Source of the keplerian elements: AFSPC